Year,Month,Day,Hour,Minute,Value (Times are PST for temperature in C)
2016,09,23,00,01,11.60
2016,09,23,00,02,11.60
2016,09,23,00,03,11.60
2016,09,23,00,04,11.60
2016,09,23,00,06,11.60
2016,09,23,00,07,11.60
2016,09,23,00,09,11.60
2016,09,23,00,11,11.60
2016,09,23,00,12,11.60
2016,09,23,00,13,11.70
2016,09,23,00,14,11.70
2016,09,23,00,16,11.80
2016,09,23,00,17,11.80
2016,09,23,00,18,11.80
2016,09,23,00,19,11.80
2016,09,23,00,21,11.80
2016,09,23,00,22,11.80
2016,09,23,00,23,11.90
2016,09,23,00,24,11.90
2016,09,23,00,26,12.00
2016,09,23,00,27,12.00
2016,09,23,00,28,12.00
2016,09,23,00,29,12.10
2016,09,23,00,31,12.20
2016,09,23,00,32,12.20
2016,09,23,00,33,12.30
2016,09,23,00,34,12.30
2016,09,23,00,36,12.30
2016,09,23,00,37,12.40
2016,09,23,00,38,12.40
2016,09,23,00,39,12.50
2016,09,23,00,41,12.60
2016,09,23,00,42,12.60
2016,09,23,00,43,12.70
2016,09,23,00,44,12.80
2016,09,23,00,45,12.80
2016,09,23,00,46,13.00
2016,09,23,00,47,13.10
2016,09,23,00,48,13.10
2016,09,23,00,49,13.20
2016,09,23,00,50,13.20
2016,09,23,00,51,13.20
2016,09,23,00,52,13.20
2016,09,23,00,53,13.20
2016,09,23,00,54,13.10
2016,09,23,00,55,13.10
2016,09,23,00,56,13.10
2016,09,23,00,57,13.10
2016,09,23,00,58,13.10
2016,09,23,00,59,13.00
2016,09,23,01,00,13.00
2016,09,23,01,01,13.00
2016,09,23,01,02,13.00
2016,09,23,01,03,13.00
2016,09,23,01,04,13.00
2016,09,23,01,06,13.00
2016,09,23,01,08,13.00
2016,09,23,01,09,13.00
2016,09,23,01,10,13.00
2016,09,23,01,11,13.00
2016,09,23,01,12,13.00
2016,09,23,01,13,13.00
2016,09,23,01,14,13.00
2016,09,23,01,15,13.00
2016,09,23,01,16,13.00
2016,09,23,01,17,12.90
2016,09,23,01,18,12.90
2016,09,23,01,19,12.90
2016,09,23,01,20,12.90
2016,09,23,01,21,12.90
2016,09,23,01,22,12.90
2016,09,23,01,23,12.90
2016,09,23,01,24,12.90
2016,09,23,01,25,12.90
2016,09,23,01,26,12.80
2016,09,23,01,27,12.80
2016,09,23,01,28,12.80
2016,09,23,01,29,12.80
2016,09,23,01,30,12.80
2016,09,23,01,31,12.80
2016,09,23,01,32,12.80
2016,09,23,01,33,12.80
2016,09,23,01,34,12.80
2016,09,23,01,35,12.80
2016,09,23,01,36,12.80
2016,09,23,01,37,12.80
2016,09,23,01,38,12.80
2016,09,23,01,39,12.80
2016,09,23,01,40,12.80
2016,09,23,01,41,12.80
2016,09,23,01,42,12.80
2016,09,23,01,43,12.80
2016,09,23,01,44,12.70
2016,09,23,01,45,12.70
2016,09,23,01,46,12.70
2016,09,23,01,47,12.60
2016,09,23,01,48,12.60
2016,09,23,01,49,12.50
2016,09,23,01,50,12.50
2016,09,23,01,51,12.40
2016,09,23,01,52,12.40
2016,09,23,01,53,12.40
2016,09,23,01,54,12.30
2016,09,23,01,55,12.30
2016,09,23,01,56,12.30
2016,09,23,01,57,12.30
2016,09,23,01,58,12.30
2016,09,23,01,59,12.30
2016,09,23,02,00,12.30
2016,09,23,02,01,12.30
2016,09,23,02,02,12.30
2016,09,23,02,03,12.30
2016,09,23,02,04,12.30
2016,09,23,02,05,12.30
2016,09,23,02,06,12.30
2016,09,23,02,07,12.30
2016,09,23,02,08,12.30
2016,09,23,02,09,12.30
2016,09,23,02,10,12.30
2016,09,23,02,12,12.30
2016,09,23,02,13,12.30
2016,09,23,02,14,12.30
2016,09,23,02,16,12.20
2016,09,23,02,17,12.20
2016,09,23,02,18,12.20
2016,09,23,02,19,12.20
2016,09,23,02,21,12.10
2016,09,23,02,22,12.10
2016,09,23,02,23,12.10
2016,09,23,02,24,12.10
2016,09,23,02,26,12.00
2016,09,23,02,27,12.00
2016,09,23,02,28,12.00
2016,09,23,02,29,12.00
2016,09,23,02,31,11.90
2016,09,23,02,32,11.90
2016,09,23,02,33,11.90
2016,09,23,02,34,11.90
2016,09,23,02,36,11.90
2016,09,23,02,37,11.80
2016,09,23,02,38,11.80
2016,09,23,02,39,11.80
2016,09,23,02,41,11.80
2016,09,23,02,42,11.80
2016,09,23,02,43,11.80
2016,09,23,02,44,11.80
2016,09,23,02,46,11.80
2016,09,23,02,47,11.80
2016,09,23,02,48,11.80
2016,09,23,02,49,11.80
2016,09,23,02,51,11.80
2016,09,23,02,52,11.80
2016,09,23,02,53,11.80
2016,09,23,02,56,11.90
2016,09,23,02,57,11.90
2016,09,23,02,58,11.90
2016,09,23,02,59,11.90
2016,09,23,03,01,11.90
2016,09,23,03,02,11.90
2016,09,23,03,03,11.90
2016,09,23,03,04,11.90
2016,09,23,03,06,11.90
2016,09,23,03,07,11.90
2016,09,23,03,08,11.90
2016,09,23,03,09,11.90
2016,09,23,03,11,11.90
2016,09,23,03,12,11.90
2016,09,23,03,13,11.90
2016,09,23,03,14,11.90
2016,09,23,03,16,11.90
2016,09,23,03,17,11.90
2016,09,23,03,18,11.90
2016,09,23,03,19,11.90
2016,09,23,03,21,11.90
2016,09,23,03,22,11.90
2016,09,23,03,23,11.90
2016,09,23,03,24,11.90
2016,09,23,03,26,11.90
2016,09,23,03,27,11.90
2016,09,23,03,28,11.90
2016,09,23,03,29,11.90
2016,09,23,03,31,11.90
2016,09,23,03,32,11.90
2016,09,23,03,33,11.90
2016,09,23,03,34,11.90
2016,09,23,03,36,11.90
2016,09,23,03,37,11.80
2016,09,23,03,38,11.80
2016,09,23,03,39,11.80
2016,09,23,03,40,11.80
2016,09,23,03,41,11.80
2016,09,23,03,42,11.80
2016,09,23,03,43,11.80
2016,09,23,03,44,11.80
2016,09,23,03,45,11.80
2016,09,23,03,46,11.80
2016,09,23,03,47,11.80
2016,09,23,03,48,11.80
2016,09,23,03,49,11.80
2016,09,23,03,50,11.80
2016,09,23,03,51,11.80
2016,09,23,03,52,11.80
2016,09,23,03,53,11.80
2016,09,23,03,54,11.80
2016,09,23,03,55,11.80
2016,09,23,03,56,11.80
2016,09,23,03,57,11.80
2016,09,23,03,58,11.80
2016,09,23,03,59,11.70
2016,09,23,04,00,11.70
2016,09,23,04,01,11.70
2016,09,23,04,02,11.70
2016,09,23,04,03,11.70
2016,09,23,04,04,11.70
2016,09,23,04,05,11.70
2016,09,23,04,06,11.70
2016,09,23,04,07,11.70
2016,09,23,04,08,11.70
2016,09,23,04,09,11.70
2016,09,23,04,10,11.70
2016,09,23,04,11,11.70
2016,09,23,04,12,11.70
2016,09,23,04,13,11.70
2016,09,23,04,14,11.70
2016,09,23,04,15,11.70
2016,09,23,04,16,11.70
2016,09,23,04,17,11.70
2016,09,23,04,18,11.70
2016,09,23,04,19,11.70
2016,09,23,04,20,11.60
2016,09,23,04,21,11.60
2016,09,23,04,22,11.60
2016,09,23,04,23,11.60
2016,09,23,04,24,11.60
2016,09,23,04,25,11.60
2016,09,23,04,26,11.60
2016,09,23,04,27,11.60
2016,09,23,04,28,11.60
2016,09,23,04,29,11.60
2016,09,23,04,30,11.60
2016,09,23,04,31,11.60
2016,09,23,04,32,11.60
2016,09,23,04,33,11.60
2016,09,23,04,34,11.60
2016,09,23,04,35,11.60
2016,09,23,04,36,11.60
2016,09,23,04,37,11.60
2016,09,23,04,38,11.60
2016,09,23,04,39,11.60
2016,09,23,04,40,11.60
2016,09,23,04,41,11.40
2016,09,23,04,42,11.40
2016,09,23,04,43,11.40
2016,09,23,04,44,11.60
2016,09,23,04,45,11.60
2016,09,23,04,46,11.60
2016,09,23,04,47,11.60
2016,09,23,04,48,11.60
2016,09,23,04,49,11.60
2016,09,23,04,50,11.60
2016,09,23,04,51,11.60
2016,09,23,04,52,11.60
2016,09,23,04,53,11.60
2016,09,23,04,54,11.60
2016,09,23,04,55,11.60
2016,09,23,04,56,11.60
2016,09,23,04,57,11.60
2016,09,23,04,58,11.60
2016,09,23,04,59,11.60
2016,09,23,05,00,11.60
2016,09,23,05,01,11.60
2016,09,23,05,02,11.60
2016,09,23,05,03,11.60
2016,09,23,05,04,11.60
2016,09,23,05,06,11.60
2016,09,23,05,07,11.60
2016,09,23,05,08,11.60
2016,09,23,05,09,11.60
2016,09,23,05,11,11.60
2016,09,23,05,12,11.60
2016,09,23,05,13,11.60
2016,09,23,05,14,11.60
2016,09,23,05,16,11.60
2016,09,23,05,17,11.60
2016,09,23,05,18,11.60
2016,09,23,05,19,11.60
2016,09,23,05,21,11.60
2016,09,23,05,22,11.60
2016,09,23,05,23,11.60
2016,09,23,05,24,11.60
2016,09,23,05,26,11.60
2016,09,23,05,27,11.60
2016,09,23,05,28,11.60
2016,09,23,05,29,11.60
2016,09,23,05,31,11.60
2016,09,23,05,32,11.60
2016,09,23,05,33,11.40
2016,09,23,05,34,11.40
2016,09,23,05,36,11.40
2016,09,23,05,37,11.40
2016,09,23,05,38,11.40
2016,09,23,05,39,11.40
2016,09,23,05,41,11.40
2016,09,23,05,42,11.40
2016,09,23,05,43,11.40
2016,09,23,05,44,11.40
2016,09,23,05,46,11.40
2016,09,23,05,47,11.40
2016,09,23,05,48,11.40
2016,09,23,05,49,11.40
2016,09,23,05,51,11.40
2016,09,23,05,52,11.40
2016,09,23,05,53,11.40
2016,09,23,05,54,11.40
2016,09,23,05,56,11.40
2016,09,23,05,57,11.40
2016,09,23,05,58,11.40
2016,09,23,05,59,11.40
2016,09,23,06,01,11.40
2016,09,23,06,02,11.40
2016,09,23,06,03,11.40
2016,09,23,06,04,11.60
2016,09,23,06,06,11.60
2016,09,23,06,07,11.60
2016,09,23,06,08,11.60
2016,09,23,06,09,11.60
2016,09,23,06,11,11.60
2016,09,23,06,12,11.60
2016,09,23,06,13,11.60
2016,09,23,06,14,11.60
2016,09,23,06,16,11.60
2016,09,23,06,17,11.60
2016,09,23,06,18,11.60
2016,09,23,06,19,11.60
2016,09,23,06,21,11.60
2016,09,23,06,22,11.60
2016,09,23,06,23,11.60
2016,09,23,06,24,11.60
2016,09,23,06,25,11.60
2016,09,23,06,26,11.60
2016,09,23,06,27,11.60
2016,09,23,06,28,11.60
2016,09,23,06,29,11.60
2016,09,23,06,30,11.60
2016,09,23,06,31,11.60
2016,09,23,06,32,11.60
2016,09,23,06,33,11.60
2016,09,23,06,34,11.60
2016,09,23,06,36,11.60
2016,09,23,06,37,11.60
2016,09,23,06,38,11.60
2016,09,23,06,39,11.60
2016,09,23,06,40,11.60
2016,09,23,06,41,11.60
2016,09,23,06,42,11.60
2016,09,23,07,28,11.60
2016,09,23,07,29,11.60
2016,09,23,07,30,11.60
2016,09,23,07,31,11.60
2016,09,23,07,32,11.40
2016,09,23,07,33,11.40
2016,09,23,07,34,11.40
2016,09,23,08,28,11.70
2016,09,23,08,29,11.70
2016,09,23,08,30,11.70
2016,09,23,08,31,11.70
2016,09,23,08,32,11.70
2016,09,23,08,33,11.70
2016,09,23,08,34,11.70
2016,09,23,08,35,11.70
2016,09,23,08,36,11.70
2016,09,23,08,37,11.70
2016,09,23,08,38,11.80
2016,09,23,08,39,11.80
2016,09,23,08,40,11.80
2016,09,23,08,41,11.80
2016,09,23,08,42,11.80
2016,09,23,08,43,11.80
2016,09,23,08,44,11.80
2016,09,23,08,45,11.80
2016,09,23,08,46,11.80
2016,09,23,08,47,11.80
2016,09,23,08,48,11.80
2016,09,23,08,49,11.80
2016,09,23,08,50,11.80
2016,09,23,08,51,11.80
2016,09,23,08,52,11.80
2016,09,23,08,53,11.80
2016,09,23,08,54,11.90
2016,09,23,08,55,11.90
2016,09,23,08,56,11.90
2016,09,23,08,57,11.90
2016,09,23,08,58,11.90
2016,09,23,08,59,11.90
2016,09,23,09,00,11.90
2016,09,23,09,01,12.00
2016,09,23,09,02,12.00
2016,09,23,09,03,12.00
2016,09,23,09,04,12.00
2016,09,23,09,05,12.00
2016,09,23,09,06,12.00
2016,09,23,09,07,12.10
2016,09,23,09,08,12.10
2016,09,23,09,09,12.10
2016,09,23,09,10,12.10
2016,09,23,09,11,12.20
2016,09,23,09,12,12.20
2016,09,23,09,13,12.20
2016,09,23,09,14,12.20
2016,09,23,09,15,12.20
2016,09,23,09,17,12.20
2016,09,23,09,19,12.20
2016,09,23,09,21,12.20
2016,09,23,09,22,12.20
2016,09,23,09,23,12.20
2016,09,23,09,24,12.20
2016,09,23,09,26,12.20
2016,09,23,09,27,12.20
2016,09,23,09,28,12.20
2016,09,23,09,29,12.30
2016,09,23,09,31,12.20
2016,09,23,09,32,12.20
2016,09,23,09,33,12.20
2016,09,23,09,34,12.20
2016,09,23,09,36,12.20
2016,09,23,09,37,12.20
2016,09,23,09,38,12.20
2016,09,23,09,39,12.20
2016,09,23,09,41,12.20
2016,09,23,09,42,12.20
2016,09,23,09,43,12.20
2016,09,23,09,44,12.20
2016,09,23,09,46,12.20
2016,09,23,09,47,12.20
2016,09,23,09,48,12.20
2016,09,23,09,49,12.20
2016,09,23,09,51,12.20
2016,09,23,09,52,12.20
2016,09,23,09,53,12.20
2016,09,23,09,54,12.20
2016,09,23,09,56,12.20
2016,09,23,09,57,12.20
2016,09,23,09,58,12.20
2016,09,23,09,59,12.20
2016,09,23,10,01,12.30
2016,09,23,10,02,12.30
2016,09,23,10,03,12.30
2016,09,23,10,04,12.30
2016,09,23,10,06,12.30
2016,09,23,10,07,12.30
2016,09,23,10,08,12.30
2016,09,23,10,09,12.30
2016,09,23,10,11,12.30
2016,09,23,10,12,12.30
2016,09,23,10,13,12.30
2016,09,23,10,14,12.30
2016,09,23,10,16,12.30
2016,09,23,10,17,12.30
2016,09,23,10,18,12.30
2016,09,23,10,19,12.30
2016,09,23,10,21,12.30
2016,09,23,10,22,12.30
2016,09,23,10,24,12.30
2016,09,23,10,26,12.30
2016,09,23,10,27,12.30
2016,09,23,10,28,12.30
2016,09,23,10,29,12.30
2016,09,23,10,31,12.30
2016,09,23,10,32,12.30
2016,09,23,10,33,12.30
2016,09,23,10,34,12.30
2016,09,23,10,36,12.30
2016,09,23,10,37,12.30
2016,09,23,10,38,12.30
2016,09,23,10,39,12.30
2016,09,23,10,40,12.30
2016,09,23,10,41,12.30
2016,09,23,10,42,12.30
2016,09,23,10,43,12.30
2016,09,23,10,44,12.30
2016,09,23,10,45,12.30
2016,09,23,10,46,12.30
2016,09,23,10,47,12.40
2016,09,23,10,48,12.40
2016,09,23,10,49,12.40
2016,09,23,10,50,12.40
2016,09,23,10,51,12.40
2016,09,23,10,52,12.40
2016,09,23,10,53,12.40
2016,09,23,10,54,12.40
2016,09,23,10,55,12.40
2016,09,23,10,56,12.50
2016,09,23,10,57,12.50
2016,09,23,10,58,12.50
2016,09,23,10,59,12.50
2016,09,23,11,01,12.50
2016,09,23,11,02,12.50
2016,09,23,11,03,12.60
2016,09,23,11,04,12.60
2016,09,23,11,06,12.60
2016,09,23,11,07,12.60
2016,09,23,11,08,12.60
2016,09,23,11,09,12.60
2016,09,23,11,10,12.60
2016,09,23,11,11,12.60
2016,09,23,11,12,12.60
2016,09,23,11,13,12.60
2016,09,23,11,14,12.60
2016,09,23,11,15,12.60
2016,09,23,11,16,12.60
2016,09,23,11,17,12.60
2016,09,23,11,18,12.60
2016,09,23,11,19,12.60
2016,09,23,11,20,12.60
2016,09,23,11,21,12.60
2016,09,23,11,22,12.60
2016,09,23,11,23,12.60
2016,09,23,11,24,12.60
2016,09,23,11,25,12.60
2016,09,23,11,26,12.60
2016,09,23,11,27,12.60
2016,09,23,11,28,12.70
2016,09,23,11,29,12.70
2016,09,23,11,30,12.70
2016,09,23,11,31,12.70
2016,09,23,11,32,12.70
2016,09,23,11,33,12.70
2016,09,23,11,34,12.70
2016,09,23,11,35,12.70
2016,09,23,11,36,12.70
2016,09,23,11,37,12.70
2016,09,23,11,38,12.60
2016,09,23,11,39,12.60
2016,09,23,11,40,12.60
2016,09,23,11,41,12.60
2016,09,23,11,42,12.60
2016,09,23,11,43,12.60
2016,09,23,11,44,12.60
2016,09,23,11,45,12.60
2016,09,23,11,46,12.60
2016,09,23,11,47,12.60
2016,09,23,11,48,12.60
2016,09,23,11,49,12.60
2016,09,23,11,50,12.60
2016,09,23,11,51,12.60
2016,09,23,11,52,12.60
2016,09,23,11,53,12.60
2016,09,23,11,54,12.60
2016,09,23,11,55,12.60
2016,09,23,11,56,12.60
2016,09,23,11,57,12.60
2016,09,23,11,58,12.60
2016,09,23,11,59,12.60
2016,09,23,12,00,12.60
2016,09,23,12,01,12.60
2016,09,23,12,02,12.60
2016,09,23,12,04,12.60
2016,09,23,12,05,12.60
2016,09,23,12,07,12.60
2016,09,23,12,08,12.60
2016,09,23,12,09,12.60
2016,09,23,12,11,12.50
2016,09,23,12,12,12.50
2016,09,23,12,13,12.50
2016,09,23,12,14,12.50
2016,09,23,12,16,12.50
2016,09,23,12,17,12.40
2016,09,23,12,18,12.40
2016,09,23,12,19,12.40
2016,09,23,12,21,12.40
2016,09,23,12,22,12.40
2016,09,23,12,23,12.40
2016,09,23,12,24,12.40
2016,09,23,12,26,12.40
2016,09,23,12,27,12.40
2016,09,23,12,28,12.30
2016,09,23,12,29,12.30
2016,09,23,12,31,12.30
2016,09,23,12,32,12.30
2016,09,23,12,33,12.30
2016,09,23,12,34,12.30
2016,09,23,12,36,12.30
2016,09,23,12,37,12.30
2016,09,23,12,38,12.30
2016,09,23,12,39,12.30
2016,09,23,12,41,12.30
2016,09,23,12,42,12.40
2016,09,23,12,43,12.40
2016,09,23,12,44,12.50
2016,09,23,12,46,12.50
2016,09,23,12,47,12.50
2016,09,23,12,48,12.50
2016,09,23,12,49,12.40
2016,09,23,12,51,12.40
2016,09,23,12,52,12.40
2016,09,23,12,53,12.40
2016,09,23,12,54,12.40
2016,09,23,12,56,12.50
2016,09,23,12,57,12.50
2016,09,23,12,58,12.50
2016,09,23,12,59,12.50
2016,09,23,13,01,12.60
2016,09,23,13,02,12.60
2016,09,23,13,03,12.60
2016,09,23,13,04,12.60
2016,09,23,13,06,12.60
2016,09,23,13,07,12.60
2016,09,23,13,08,12.60
2016,09,23,13,09,12.60
2016,09,23,13,11,12.70
2016,09,23,13,12,12.70
2016,09,23,13,13,12.70
2016,09,23,13,14,12.80
2016,09,23,13,16,12.80
2016,09,23,13,17,12.80
2016,09,23,13,18,12.80
2016,09,23,13,19,12.80
2016,09,23,13,21,12.80
2016,09,23,13,22,12.80
2016,09,23,13,23,12.90
2016,09,23,13,24,12.90
2016,09,23,13,25,13.00
2016,09,23,13,26,13.00
2016,09,23,13,27,13.00
2016,09,23,13,28,13.10
2016,09,23,13,29,13.10
2016,09,23,13,30,13.10
2016,09,23,13,31,13.10
2016,09,23,13,32,13.10
2016,09,23,13,33,13.10
2016,09,23,13,34,13.10
2016,09,23,13,36,13.20
2016,09,23,13,37,13.20
2016,09,23,13,38,13.20
2016,09,23,13,39,13.20
2016,09,23,13,40,13.20
2016,09,23,13,41,13.20
2016,09,23,13,42,13.30
2016,09,23,13,43,13.30
2016,09,23,13,44,13.30
2016,09,23,13,45,13.30
2016,09,23,13,46,13.40
2016,09,23,13,47,13.40
2016,09,23,13,48,13.50
2016,09,23,13,49,13.50
2016,09,23,13,50,13.50
2016,09,23,13,51,13.50
2016,09,23,13,52,13.50
2016,09,23,13,53,13.50
2016,09,23,13,54,13.50
2016,09,23,13,55,13.60
2016,09,23,13,56,13.60
2016,09,23,13,57,13.70
2016,09,23,13,58,13.70
2016,09,23,13,59,13.70
2016,09,23,14,00,13.70
2016,09,23,14,01,13.70
2016,09,23,14,02,13.70
2016,09,23,14,03,13.70
2016,09,23,14,04,13.60
2016,09,23,14,05,13.60
2016,09,23,14,06,13.60
2016,09,23,14,07,13.70
2016,09,23,14,08,13.70
2016,09,23,14,09,13.70
2016,09,23,14,10,13.70
2016,09,23,14,11,13.80
2016,09,23,14,12,13.80
2016,09,23,14,13,13.70
2016,09,23,14,14,13.70
2016,09,23,14,15,13.70
2016,09,23,14,16,13.70
2016,09,23,14,17,13.70
2016,09,23,14,18,13.70
2016,09,23,14,19,13.70
2016,09,23,14,20,13.70
2016,09,23,14,21,13.70
2016,09,23,14,22,13.80
2016,09,23,14,23,13.80
2016,09,23,14,24,13.90
2016,09,23,14,25,13.90
2016,09,23,14,26,13.80
2016,09,23,14,27,13.80
2016,09,23,14,28,13.80
2016,09,23,14,29,13.80
2016,09,23,14,30,13.80
2016,09,23,14,31,13.70
2016,09,23,14,32,13.70
2016,09,23,14,33,13.70
2016,09,23,14,34,13.70
2016,09,23,14,35,13.70
2016,09,23,14,36,13.70
2016,09,23,14,37,13.70
2016,09,23,14,38,13.60
2016,09,23,14,39,13.60
2016,09,23,14,41,13.50
2016,09,23,14,42,13.50
2016,09,23,14,43,13.40
2016,09,23,14,44,13.40
2016,09,23,14,45,13.40
2016,09,23,14,46,13.40
2016,09,23,14,47,13.30
2016,09,23,14,48,13.30
2016,09,23,14,49,13.30
2016,09,23,14,50,13.30
2016,09,23,14,51,13.40
2016,09,23,14,52,13.40
2016,09,23,14,53,13.40
2016,09,23,14,54,13.40
2016,09,23,14,56,13.40
2016,09,23,14,57,13.40
2016,09,23,14,58,13.30
2016,09,23,14,59,13.30
2016,09,23,15,01,13.30
2016,09,23,15,02,13.30
2016,09,23,15,03,13.20
2016,09,23,15,04,13.20
2016,09,23,15,06,13.20
2016,09,23,15,07,13.20
2016,09,23,15,08,13.10
2016,09,23,15,09,13.10
2016,09,23,15,11,13.10
2016,09,23,15,12,13.10
2016,09,23,15,13,13.10
2016,09,23,15,14,13.10
2016,09,23,15,16,13.20
2016,09,23,15,17,13.20
2016,09,23,15,18,13.30
2016,09,23,15,19,13.30
2016,09,23,15,21,13.30
2016,09,23,15,22,13.40
2016,09,23,15,23,13.50
2016,09,23,15,24,13.50
2016,09,23,15,26,13.50
2016,09,23,15,27,13.40
2016,09,23,15,28,13.40
2016,09,23,15,29,13.30
2016,09,23,15,31,13.30
2016,09,23,15,32,13.30
2016,09,23,15,33,13.20
2016,09,23,15,34,13.20
2016,09,23,15,36,13.10
2016,09,23,15,37,13.10
2016,09,23,15,38,13.00
2016,09,23,15,39,13.00
2016,09,23,15,41,12.90
2016,09,23,15,42,12.90
2016,09,23,15,43,12.90
2016,09,23,15,44,12.90
2016,09,23,15,46,12.90
2016,09,23,15,47,12.90
2016,09,23,15,48,12.90
2016,09,23,15,49,13.00
2016,09,23,15,51,13.10
2016,09,23,15,52,13.20
2016,09,23,15,53,13.20
2016,09,23,15,54,13.30
2016,09,23,15,56,13.30
2016,09,23,15,57,13.30
2016,09,23,15,58,13.30
2016,09,23,15,59,13.30
2016,09,23,16,01,13.30
2016,09,23,16,02,13.40
2016,09,23,16,03,13.40
2016,09,23,16,04,13.40
2016,09,23,16,06,13.30
2016,09,23,16,07,13.30
2016,09,23,16,08,13.30
2016,09,23,16,09,13.30
2016,09,23,16,11,13.30
2016,09,23,16,12,13.30
2016,09,23,16,13,13.30
2016,09,23,16,14,13.30
2016,09,23,16,15,13.30
2016,09,23,16,16,13.30
2016,09,23,16,17,13.30
2016,09,23,16,18,13.30
2016,09,23,16,19,13.30
2016,09,23,16,20,13.30
2016,09,23,16,21,13.30
2016,09,23,16,22,13.30
2016,09,23,16,23,13.20
2016,09,23,16,24,13.20
2016,09,23,16,25,13.20
2016,09,23,16,26,13.20
2016,09,23,16,27,13.20
2016,09,23,16,28,13.10
2016,09,23,16,29,13.10
2016,09,23,16,30,13.10
2016,09,23,16,31,13.10
2016,09,23,16,32,13.10
2016,09,23,16,33,13.10
2016,09,23,16,34,13.10
2016,09,23,16,36,13.10
2016,09,23,16,37,13.00
2016,09,23,16,38,13.00
2016,09,23,16,39,13.00
2016,09,23,16,40,13.00
2016,09,23,16,41,13.00
2016,09,23,16,42,13.00
2016,09,23,16,43,13.00
2016,09,23,16,44,12.90
2016,09,23,16,45,12.90
2016,09,23,16,46,12.90
2016,09,23,16,47,12.90
2016,09,23,16,48,12.90
2016,09,23,16,49,12.80
2016,09,23,16,50,12.80
2016,09,23,16,51,12.80
2016,09,23,16,52,12.80
2016,09,23,16,53,12.90
2016,09,23,16,54,12.90
2016,09,23,16,55,12.90
2016,09,23,16,56,12.90
2016,09,23,16,57,12.90
2016,09,23,16,58,12.80
2016,09,23,16,59,12.80
2016,09,23,17,00,12.80
2016,09,23,17,01,12.80
2016,09,23,17,02,12.80
2016,09,23,17,03,12.80
2016,09,23,17,04,12.80
2016,09,23,17,05,12.80
2016,09,23,17,06,12.80
2016,09,23,17,07,12.80
2016,09,23,17,08,12.80
2016,09,23,17,09,12.80
2016,09,23,17,10,12.80
2016,09,23,17,11,12.80
2016,09,23,17,12,12.80
2016,09,23,17,13,12.80
2016,09,23,17,14,12.80
2016,09,23,17,15,12.80
2016,09,23,17,16,12.80
2016,09,23,17,17,12.80
2016,09,23,17,18,12.80
2016,09,23,17,19,12.80
2016,09,23,17,20,12.80
2016,09,23,17,21,12.80
2016,09,23,17,22,12.80
2016,09,23,17,23,12.80
2016,09,23,17,24,12.80
2016,09,23,17,25,12.80
2016,09,23,17,26,12.80
2016,09,23,17,27,12.80
2016,09,23,17,28,12.80
2016,09,23,17,29,12.90
2016,09,23,17,30,12.90
2016,09,23,17,31,12.90
2016,09,23,17,32,12.90
2016,09,23,17,33,12.90
2016,09,23,17,34,12.90
2016,09,23,17,35,12.80
2016,09,23,17,36,12.80
2016,09,23,17,37,12.80
2016,09,23,17,38,12.80
2016,09,23,17,39,12.80
2016,09,23,17,41,12.80
2016,09,23,17,42,12.80
2016,09,23,17,43,12.80
2016,09,23,17,44,12.80
2016,09,23,17,46,12.80
2016,09,23,17,47,12.80
2016,09,23,17,48,12.80
2016,09,23,17,49,12.80
2016,09,23,17,51,12.90
2016,09,23,17,52,12.90
2016,09,23,17,53,12.90
2016,09,23,17,54,12.90
2016,09,23,17,56,12.90
2016,09,23,17,57,13.00
2016,09,23,17,58,13.00
2016,09,23,17,59,13.00
2016,09,23,18,01,13.10
2016,09,23,18,02,13.10
2016,09,23,18,03,13.10
2016,09,23,18,04,13.10
2016,09,23,18,06,13.10
2016,09,23,18,07,13.10
2016,09,23,18,08,13.10
2016,09,23,18,09,13.10
2016,09,23,18,11,13.10
2016,09,23,18,12,13.10
2016,09,23,18,13,13.10
2016,09,23,18,14,13.10
2016,09,23,18,16,13.10
2016,09,23,18,17,13.10
2016,09,23,18,18,13.10
2016,09,23,18,19,13.20
2016,09,23,18,21,13.20
2016,09,23,18,22,13.20
2016,09,23,18,23,13.20
2016,09,23,18,24,13.20
2016,09,23,18,26,13.30
2016,09,23,18,27,13.30
2016,09,23,18,28,13.30
2016,09,23,18,29,13.30
2016,09,23,18,31,13.30
2016,09,23,18,32,13.30
2016,09,23,18,33,13.30
2016,09,23,18,34,13.30
2016,09,23,18,36,13.30
2016,09,23,18,37,13.30
2016,09,23,18,38,13.30
2016,09,23,18,39,13.30
2016,09,23,18,41,13.40
2016,09,23,18,42,13.40
2016,09,23,18,43,13.40
2016,09,23,18,44,13.40
2016,09,23,18,46,13.40
2016,09,23,18,47,13.40
2016,09,23,18,48,13.40
2016,09,23,18,49,13.40
2016,09,23,18,51,13.50
2016,09,23,18,52,13.50
2016,09,23,18,53,13.50
2016,09,23,18,54,13.50
2016,09,23,18,56,13.50
2016,09,23,18,57,13.50
2016,09,23,18,58,13.50
2016,09,23,18,59,13.50
2016,09,23,19,01,13.50
2016,09,23,19,02,13.50
2016,09,23,19,03,13.50
2016,09,23,19,04,13.50
2016,09,23,19,06,13.50
2016,09,23,19,07,13.50
2016,09,23,19,08,13.50
2016,09,23,19,09,13.50
2016,09,23,19,10,13.50
2016,09,23,19,11,13.50
2016,09,23,19,12,13.50
2016,09,23,19,13,13.50
2016,09,23,19,14,13.50
2016,09,23,19,15,13.50
2016,09,23,19,16,13.50
2016,09,23,19,17,13.50
2016,09,23,19,18,13.60
2016,09,23,19,19,13.60
2016,09,23,19,20,13.60
2016,09,23,19,21,13.60
2016,09,23,19,22,13.60
2016,09,23,19,23,13.60
2016,09,23,19,24,13.50
2016,09,23,19,25,13.50
2016,09,23,19,26,13.50
2016,09,23,19,27,13.50
2016,09,23,19,28,13.50
2016,09,23,19,29,13.50
2016,09,23,19,30,13.50
2016,09,23,19,31,13.50
2016,09,23,19,32,13.50
2016,09,23,19,33,13.50
2016,09,23,19,34,13.50
2016,09,23,19,35,13.50
2016,09,23,19,36,13.50
2016,09,23,19,37,13.50
2016,09,23,19,38,13.50
2016,09,23,19,39,13.50
2016,09,23,19,40,13.50
2016,09,23,19,41,13.50
2016,09,23,19,42,13.50
2016,09,23,19,43,13.50
2016,09,23,19,44,13.50
2016,09,23,19,45,13.50
2016,09,23,19,46,13.50
2016,09,23,19,47,13.50
2016,09,23,19,48,13.40
2016,09,23,19,49,13.40
2016,09,23,19,50,13.40
2016,09,23,19,51,13.40
2016,09,23,19,52,13.40
2016,09,23,19,53,13.30
2016,09,23,19,54,13.30
2016,09,23,19,55,13.30
2016,09,23,19,56,13.30
2016,09,23,19,57,13.30
2016,09,23,19,58,13.30
2016,09,23,19,59,13.30
2016,09,23,20,00,13.30
2016,09,23,20,01,13.30
2016,09,23,20,02,13.30
2016,09,23,20,03,13.30
2016,09,23,20,04,13.30
2016,09,23,20,05,13.30
2016,09,23,20,06,13.30
2016,09,23,20,07,13.30
2016,09,23,20,08,13.30
2016,09,23,20,09,13.20
2016,09,23,20,10,13.20
2016,09,23,20,11,13.20
2016,09,23,20,12,13.20
2016,09,23,20,13,13.20
2016,09,23,20,14,13.10
2016,09,23,20,15,13.10
2016,09,23,20,16,13.10
2016,09,23,20,17,13.10
2016,09,23,20,18,13.10
2016,09,23,20,19,13.10
2016,09,23,20,20,13.10
2016,09,23,20,21,13.10
2016,09,23,20,22,13.10
2016,09,23,20,23,13.00
2016,09,23,20,24,13.00
2016,09,23,20,26,13.00
2016,09,23,20,27,13.00
2016,09,23,20,28,13.00
2016,09,23,20,29,13.00
2016,09,23,20,30,13.00
2016,09,23,20,31,13.00
2016,09,23,20,32,13.00
2016,09,23,20,33,13.00
2016,09,23,20,34,13.00
2016,09,23,20,35,13.00
2016,09,23,20,37,13.00
2016,09,23,20,38,13.00
2016,09,23,20,39,12.90
2016,09,23,20,41,12.90
2016,09,23,20,42,12.90
2016,09,23,20,43,12.90
2016,09,23,20,44,12.90
2016,09,23,21,28,13.30
2016,09,23,21,29,13.30
2016,09,23,21,30,13.30
2016,09,23,21,31,13.30
2016,09,23,21,32,13.30
2016,09,23,21,33,13.30
2016,09,23,21,34,13.40
2016,09,23,21,35,13.40
2016,09,23,21,36,13.40
2016,09,23,21,37,13.40
2016,09,23,21,38,13.50
2016,09,23,21,39,13.50
2016,09,23,21,40,13.50
2016,09,23,21,41,13.50
2016,09,23,21,42,13.50
2016,09,23,21,43,13.50
2016,09,23,21,44,13.50
2016,09,23,21,45,13.50
2016,09,23,21,46,13.50